SCP
0 0 0 0 0 0 0 0 0 0 0 0 0 0 0 0 0 0 0 0 0 0 0 0 0 0 0 0 0 0 -0 -0 -0 -0 -0 -0 -0 -0 -0 -0 -0 -0 -0 -0
0 0 0 0 0 0 0 0 0 0 0 0 0 0 0 0 0 0 0 0 0 0 0 0 0 0 0 0 0 -0 -0 -0 -0 -0 -0 -0 -0 -0 -0 -0 -0 -0 -0 -0
0 0 0 0 0 0 0 0 0 -0 0 0 0 0 -0 0 0 0 0 0 0 0 0 0 0 0 0 0 0 0 -0 0 0 0 0 -0 0 -0 -0 -0 -0 -0 -0 0
0 0 0 0 0 0 -0 0 0 0 0 0 -0 0 0 0 0 0 0 0 0 0 0 0 0 0 0 0 0 0 0 0 0 0 0 0 0 0 0 0 0 0 0 0
0 0 0 0 0 0 0 0 -0 -0 0 0 0 0 0 0 0 0 0 0 0 0 0 0 0 0 0 0 0 0 0 0 0 0 0 0 0 0 0 0 0 0 0 0
0 0 0 -0 0 0 0 0 0 -0 -0 -0 0 0 0 0 0 0 0 0 0 0 0 0 0 0 0 0 0 0 0 0 0 0 0 0 0 0 0 0 0 0 0 0
0 0 0 0 0 0 0 0 0 0 -0 -0 -0 0 0 0 0 0 0 0 0 0 0 0 0 0 0 0 0 0 0 0 0 0 0 0 0 0 0 0 0 0 0 0
0 0 0 0 0 0 0 0 0 0 0 -0 0 0 -0 0 0 0 0 0 0 0 0 0 0 0 0 0 0 0 0 0 0 0 0 0 0 0 0 0 0 0 0 0
0 0 0 0 0 0 0 0 0 0 0 0 0 0 0 0 0 0 0 0 0 0 0 0 0 0 0 0 0 0 0 0 0 0 0 0 0 0 0 0 0 0 0 0
0 0 0 0 0 0 0 0 0 0 0 0 0 0 0 0 0 0 0 0 0 0 0 0 0 0 0 0 0 0 0 0 0 0 0 0 0 0 0 0 0 0 0 0
0 0 0 0 0 0 0 0 0 0 0 0 0 0 0 0 0 0 0 0 0 0 0 0 0 0 0 0 0 0 0 0 0 0 0 0 0 0 0 0 0 0 0 0
0 0 0 0 0 0 0 0 0 0 0 0 0 0 0 0 0 0 0 0 0 0 0 0 0 0 0 0 0 0 0 0 0 0 0 0 0 0 0 0 0 0 0 0
0 0 0 0 0 0 0 0 0 0 0 0 0 0 0 0 0 0 0 0 0 0 0 0 0 0 0 0 0 0 0 0 0 0 0 0 0 0 0 0 0 0 0 0
0 0 0 0 0 0 0 0 0 0 0 0 0 0 0 0 0 0 0 0 0 0 0 0 0 0 0 0 0 0 0 0 0 0 0 0 0 0 0 0 0 0 0 0
0 0 0 0 0 0 0 0 0 0 0 0 0 0 0 0 0 0 0 0 0 0 0 0 0 0 0 0 0 0 0 0 0 0 0 0 0 0 0 0 0 0 0 0
0 0 0 0 0 0 0 0 0 0 0 0 0 0 0 0 0 0 0 0 0 0 0 0 0 0 0 0 0 0 0 0 0 0 0 0 0 0 0 0 0 0 0 0
0 0 0 0 0 0 0 0 0 0 0 0 0 0 0 0 0 0 0 0 0 0 0 0 0 0 0 0 0 0 0 0 0 0 0 0 0 0 0 0 0 0 0 0
0 0 0 0 0 0 0 0 0 0 0 0 0 0 0 0 0 0 0 0 0 0 0 0 0 0 0 0 0 0 0 0 0 0 0 0 0 0 0 0 0 0 0 0
0 0 0 0 0 0 0 0 0 0 0 0 0 0 0 0 0 0 0 0 0 0 0 0 0 0 0 0 0 0 0 0 0 0 0 0 0 0 0 0 0 0 0 0
0 0 0 0 0 0 0 0 0 0 0 0 0 0 0 0 0 0 0 0 0 0 0 0 0 0 0 0 0 0 0 0 0 0 0 0 0 0 0 0 0 0 0 0
0 0 0 0 0 0 0 0 0 0 0 0 0 0 0 0 0 0 0 0 0 0 0 0 0 0 0 0 0 0 0 0 0 0 0 0 0 0 0 0 0 0 0 0
0 0 0 0 0 0 0 0 0 0 0 0 0 0 0 0 0 0 0 0 0 0 0 0 0 0 0 0 0 0 0 0 0 0 0 0 0 0 0 0 0 0 0 0
0 0 0 0 0 0 0 0 0 0 0 0 0 0 0 0 0 0 0 0 0 0 0 0 0 0 0 0 0 0 0 0 0 0 0 0 0 0 0 0 0 0 -0 0
0 0 0 0 0 0 0 0 0 0 0 0 0 0 0 0 0 0 0 0 0 0 0 0 0 0 0 0 0 0 0 0 0 0 0 0 0 0 0 0 0 0 -0 0
0 0 0 0 0 0 0 0 0 0 0 0 0 0 0 0 0 0 0 0 0 0 0 0 0 0 0 0 0 0 0 0 0 0 0 0 0 0 0 0 0 0 -0 0
0 0 0 0 0 0 0 0 0 0 0 0 0 0 0 0 0 0 0 0 0 0 0 0 0 0 0 0 0 0 0 0 0 0 0 0 0 0 0 0 0 0 -0 0
0 0 0 0 0 0 0 0 0 0 0 0 0 0 0 0 0 0 0 0 0 0 0 0 0 0 0 0 0 0 0 0 0 0 0 0 0 0 0 0 0 -0 -0 -0
Wind_Speed_500mb
4 5 9 10 22 25 15 10 11 9 18 17 26 22 37 47 41 37 27 17 6 7 16 24 26 28 35 41 41 41 44 44 44 42 42 45 51 55 56 58 61 60 57 50
4 2 4 5 17 26 26 12 14 8 13 15 35 36 49 55 52 40 30 18 5 11 15 18 19 27 34 35 38 43 45 47 48 48 50 52 56 58 57 59 64 65 61 54
6 1 7 14 28 33 22 15 24 21 17 14 12 36 57 61 53 43 30 17 8 9 12 12 17 24 29 31 35 39 44 46 47 48 49 52 53 54 58 64 67 66 63 61
5 3 1 14 5 22 38 20 29 15 14 33 47 62 69 65 55 40 29 16 10 8 8 8 14 21 26 29 36 42 45 42 43 46 48 52 52 55 58 60 61 62 62 61
9 7 12 10 12 16 21 28 35 39 19 29 40 48 40 58 50 37 27 16 10 7 6 8 16 22 27 34 43 49 47 46 46 47 50 54 55 60 61 62 62 61 62 62
5 9 17 10 4 22 15 12 34 56 38 45 51 18 11 60 48 37 26 18 13 7 8 11 17 23 31 41 47 50 48 45 44 44 47 49 55 61 63 64 65 64 63 59
5 7 15 17 13 25 11 14 16 63 66 72 37 48 67 64 50 35 25 20 14 8 9 14 18 25 34 42 45 43 45 45 49 50 49 49 55 59 60 64 65 67 64 67
6 4 15 17 9 17 12 5 28 57 75 88 66 50 50 64 51 41 32 26 17 11 12 15 20 29 36 38 35 35 39 46 53 58 58 51 57 59 62 64 67 69 71 73
17 14 13 7 21 15 15 9 23 59 70 90 65 52 62 63 53 42 33 26 19 14 14 15 21 26 30 30 30 33 40 47 52 57 59 54 56 64 66 62 65 69 68 76
7 13 31 43 29 31 26 19 15 39 69 85 72 60 68 60 53 45 37 29 21 17 15 14 16 22 28 29 30 35 41 46 50 57 59 53 56 58 61 63 66 69 72 73
7 18 25 32 40 31 32 31 20 30 57 75 71 69 64 60 52 43 36 31 24 18 15 14 16 23 28 29 33 38 43 49 51 55 56 56 61 61 62 61 58 65 68 65
11 39 19 21 31 35 42 41 32 41 58 62 59 60 58 54 49 43 38 31 24 19 16 15 18 25 30 34 37 42 47 50 49 51 52 60 65 70 66 67 64 59 64 60
27 49 37 42 19 43 55 50 47 52 57 57 53 45 52 53 50 42 33 29 24 19 15 16 21 27 33 37 41 45 49 51 50 51 53 60 65 69 80 80 71 71 72 69
54 49 33 44 45 45 58 64 55 52 50 51 51 55 48 53 50 43 36 27 23 19 16 19 25 32 37 41 46 47 50 45 46 50 50 54 59 65 71 73 82 86 79 74
51 57 54 47 45 34 63 67 69 68 67 65 60 53 55 56 52 43 33 30 25 19 19 24 30 36 40 44 44 42 45 49 49 53 54 53 56 62 67 72 76 80 87 81
39 38 33 49 38 50 54 68 71 73 70 68 66 65 59 55 48 41 36 32 23 18 22 29 33 36 37 37 36 40 43 48 60 56 56 57 59 63 69 73 77 79 82 80
39 28 15 36 47 51 56 62 69 74 78 74 70 71 67 59 50 42 37 29 22 22 27 31 30 30 31 33 38 43 46 50 57 63 56 53 56 62 65 73 78 80 81 76
78 74 63 43 43 54 57 58 64 69 77 76 75 74 71 66 57 45 35 29 26 27 27 27 28 28 29 33 39 42 45 52 56 57 55 50 54 59 64 75 76 81 82 77
60 57 51 52 50 38 57 56 55 55 66 72 75 76 72 61 47 37 34 29 27 26 25 26 27 29 31 32 36 39 42 49 50 57 50 50 51 57 67 74 79 79 78 77
61 57 53 53 53 57 49 54 58 57 54 57 71 78 66 51 41 37 32 28 28 26 26 26 26 28 29 32 37 41 46 49 51 53 48 47 50 56 69 74 81 79 76 75
87 85 83 75 66 59 58 55 59 64 58 57 72 75 61 51 44 38 33 31 28 26 25 25 26 27 31 35 39 43 47 51 51 50 48 45 50 53 71 77 80 77 74 72
86 81 80 74 65 51 46 50 62 72 68 76 75 65 59 53 45 37 33 30 27 25 23 24 25 29 34 39 42 46 48 50 50 47 45 42 47 52 68 77 78 75 70 68
63 63 67 71 76 68 56 55 63 75 76 79 72 67 60 48 40 38 34 29 25 22 23 24 27 32 37 43 46 49 49 49 49 44 39 41 44 53 65 76 78 71 66 67
48 54 55 60 66 70 63 59 73 82 78 76 70 60 53 46 40 34 29 24 21 21 23 26 30 36 41 46 50 50 50 49 49 45 37 40 45 53 66 77 71 63 61 61
43 49 53 58 60 65 66 72 78 80 77 69 60 50 42 34 27 27 23 21 21 22 25 30 34 38 42 46 48 50 50 48 48 43 37 40 44 49 67 68 61 56 56 56
42 47 51 56 61 68 76 74 79 78 73 64 53 44 38 31 26 22 20 19 20 24 28 32 36 39 41 45 49 52 50 45 45 44 36 36 43 49 62 62 55 50 49 49
39 48 57 62 67 74 79 83 83 74 63 55 49 41 33 27 22 18 16 18 22 26 30 34 38 41 44 47 48 48 45 44 42 42 36 35 41 44 57 54 49 44 42 41
Wind_Direction_500mb
182 172 160 187 177 178 184 181 167 223 201 208 205 201 199 174 171 161 161 166 169 325 335 337 339 343 344 346 348 351 349 352 357 357 356 356 355 356 355 354 354 353 351 349
319 303 107 228 195 195 207 189 242 221 237 213 202 195 172 176 174 173 174 181 230 301 320 332 339 341 341 342 343 342 341 343 343 343 345 346 347 348 346 346 346 346 347 345
241 321 83 312 218 204 208 206 195 215 211 154 155 169 179 181 184 184 186 195 243 291 316 330 334 339 340 338 337 334 332 332 333 335 337 338 339 339 340 342 342 343 342 343
173 36 234 239 208 218 211 212 217 218 190 182 187 191 189 189 187 190 198 208 237 273 301 311 324 331 337 336 336 338 339 337 338 338 338 339 338 339 339 341 341 339 341 341
143 207 292 254 206 172 173 239 211 211 200 181 162 164 187 192 199 203 199 207 222 269 270 295 315 320 327 335 337 337 338 339 340 339 337 336 335 337 339 340 341 339 339 339
110 151 211 248 317 155 102 285 200 190 165 150 146 171 218 190 193 192 197 196 206 233 254 288 305 317 329 333 332 331 334 330 330 335 334 336 338 340 341 341 339 337 335 336
143 228 285 247 247 140 114 239 204 189 169 162 178 197 201 184 189 201 200 196 207 224 254 284 301 319 325 326 328 332 335 341 342 341 340 338 337 338 338 336 335 334 335 334
102 95 265 222 127 176 229 187 186 180 179 176 184 194 188 185 187 190 194 198 208 232 270 293 310 321 326 328 333 342 347 348 344 342 338 334 335 337 337 336 336 335 334 333
179 205 236 240 241 258 252 208 181 187 188 188 184 186 181 181 186 191 199 202 211 238 270 292 312 327 334 338 343 348 345 339 336 335 332 334 338 337 337 338 339 336 333 333
115 239 240 255 251 257 250 229 202 204 197 195 186 183 179 181 186 192 197 202 214 235 259 277 304 330 338 340 343 341 339 337 335 337 337 339 334 340 341 342 338 338 335 333
269 284 271 275 242 247 229 215 220 209 203 194 192 179 181 185 191 197 200 204 216 234 246 273 305 328 338 343 339 335 335 336 334 338 339 335 334 340 338 339 338 334 335 330
211 222 207 237 231 222 206 197 200 188 183 184 187 184 189 194 197 199 200 207 217 230 247 276 304 325 336 335 330 328 328 332 334 334 335 333 336 337 337 337 336 334 337 334
217 237 228 243 269 213 201 195 193 185 185 185 192 196 196 198 199 200 204 214 224 236 257 286 308 319 326 324 321 323 325 327 329 333 334 333 336 336 335 334 338 337 338 337
236 243 242 246 239 218 208 199 199 202 204 204 201 197 202 200 197 204 213 218 226 246 272 293 303 311 316 315 316 319 320 318 323 326 328 330 331 333 333 337 333 333 337 339
232 237 245 252 230 218 208 203 200 201 200 199 203 204 204 203 207 209 209 219 232 255 277 292 301 306 309 310 316 323 332 333 330 330 329 328 330 331 334 336 335 333 335 337
220 230 234 232 234 220 213 213 212 208 206 205 205 206 210 212 208 206 215 224 239 261 278 289 295 298 304 309 317 326 326 325 329 330 329 327 330 331 333 335 336 333 331 330
221 221 225 228 225 225 220 218 217 218 211 209 212 207 204 199 200 208 215 223 237 258 276 284 290 298 306 313 319 321 318 318 320 325 327 326 327 330 332 333 336 331 328 333
231 238 235 243 233 222 217 218 220 222 218 215 210 204 200 201 208 210 217 224 238 259 272 281 289 298 306 313 318 320 320 320 321 323 327 327 328 330 329 334 331 328 330 334
226 229 233 233 231 230 223 215 214 216 217 214 207 203 205 205 206 215 216 227 248 260 268 275 285 296 307 318 323 327 326 328 326 325 329 328 330 331 334 333 330 329 333 336
217 227 235 242 240 228 227 225 216 213 211 211 208 200 195 200 208 210 218 236 248 255 265 271 285 299 312 318 322 326 328 328 327 329 327 331 332 333 334 333 333 333 336 338
233 238 240 237 236 229 224 227 222 214 210 211 202 196 199 202 202 210 223 234 245 254 263 278 291 303 310 316 321 324 325 325 323 320 324 327 329 333 331 335 335 337 337 338
231 234 238 235 228 221 224 227 224 214 206 196 196 199 197 197 201 210 222 232 245 256 269 280 291 300 308 313 318 321 322 323 322 325 323 329 330 329 329 334 337 337 337 339
241 240 241 235 229 230 229 227 219 211 201 196 196 197 198 202 211 217 223 234 244 259 271 282 293 301 305 310 316 319 322 325 327 326 323 327 328 329 331 335 336 336 337 340
248 243 237 229 226 220 219 217 203 198 196 194 196 195 198 201 207 213 222 231 245 261 274 285 293 300 305 310 314 318 321 324 326 324 319 322 327 327 330 333 334 336 338 341
237 229 222 217 212 212 209 196 191 188 184 180 183 189 194 196 210 212 221 237 252 266 277 286 293 298 304 308 312 316 317 319 322 321 318 322 328 324 327 334 335 336 339 343
218 210 205 202 200 195 188 182 177 174 175 176 179 186 189 195 202 211 227 242 258 272 282 290 296 301 306 310 315 318 318 316 319 317 310 320 324 320 327 336 335 336 340 346
193 190 184 183 184 181 177 176 175 172 177 181 181 178 185 192 203 218 236 256 269 278 286 292 297 302 307 311 316 318 319 320 321 317 309 313 321 320 327 333 332 333 338 345
Wind_Speed_850mb
4 5 9 10 22 25 15 10 11 9 18 17 26 22 37 47 41 37 27 17 6 7 16 24 26 28 35 41 41 41 44 44 44 42 42 45 51 55 56 58 61 60 57 50
4 2 4 5 17 26 26 12 14 8 13 15 35 36 49 55 52 40 30 18 5 11 15 18 19 27 34 35 38 43 45 47 48 48 50 52 56 58 57 59 64 65 61 54
6 1 7 14 28 33 22 15 24 21 17 14 12 36 57 61 53 43 30 17 8 9 12 12 17 24 29 31 35 39 44 46 47 48 49 52 53 54 58 64 67 66 63 61
5 3 1 14 5 22 38 20 29 15 14 33 47 62 69 65 55 40 29 16 10 8 8 8 14 21 26 29 36 42 45 42 43 46 48 52 52 55 58 60 61 62 62 61
9 7 12 10 12 16 21 28 35 39 19 29 40 48 40 58 50 37 27 16 10 7 6 8 16 22 27 34 43 49 47 46 46 47 50 54 55 60 61 62 62 61 62 62
5 9 17 10 4 22 15 12 34 56 38 45 51 18 11 60 48 37 26 18 13 7 8 11 17 23 31 41 47 50 48 45 44 44 47 49 55 61 63 64 65 64 63 59
5 7 15 17 13 25 11 14 16 63 66 72 37 48 67 64 50 35 25 20 14 8 9 14 18 25 34 42 45 43 45 45 49 50 49 49 55 59 60 64 65 67 64 67
6 4 15 17 9 17 12 5 28 57 75 88 66 50 50 64 51 41 32 26 17 11 12 15 20 29 36 38 35 35 39 46 53 58 58 51 57 59 62 64 67 69 71 73
17 14 13 7 21 15 15 9 23 59 70 90 65 52 62 63 53 42 33 26 19 14 14 15 21 26 30 30 30 33 40 47 52 57 59 54 56 64 66 62 65 69 68 76
7 13 31 43 29 31 26 19 15 39 69 85 72 60 68 60 53 45 37 29 21 17 15 14 16 22 28 29 30 35 41 46 50 57 59 53 56 58 61 63 66 69 72 73
7 18 25 32 40 31 32 31 20 30 57 75 71 69 64 60 52 43 36 31 24 18 15 14 16 23 28 29 33 38 43 49 51 55 56 56 61 61 62 61 58 65 68 65
11 39 19 21 31 35 42 41 32 41 58 62 59 60 58 54 49 43 38 31 24 19 16 15 18 25 30 34 37 42 47 50 49 51 52 60 65 70 66 67 64 59 64 60
27 49 37 42 19 43 55 50 47 52 57 57 53 45 52 53 50 42 33 29 24 19 15 16 21 27 33 37 41 45 49 51 50 51 53 60 65 69 80 80 71 71 72 69
54 49 33 44 45 45 58 64 55 52 50 51 51 55 48 53 50 43 36 27 23 19 16 19 25 32 37 41 46 47 50 45 46 50 50 54 59 65 71 73 82 86 79 74
51 57 54 47 45 34 63 67 69 68 67 65 60 53 55 56 52 43 33 30 25 19 19 24 30 36 40 44 44 42 45 49 49 53 54 53 56 62 67 72 76 80 87 81
39 38 33 49 38 50 54 68 71 73 70 68 66 65 59 55 48 41 36 32 23 18 22 29 33 36 37 37 36 40 43 48 60 56 56 57 59 63 69 73 77 79 82 80
39 28 15 36 47 51 56 62 69 74 78 74 70 71 67 59 50 42 37 29 22 22 27 31 30 30 31 33 38 43 46 50 57 63 56 53 56 62 65 73 78 80 81 76
78 74 63 43 43 54 57 58 64 69 77 76 75 74 71 66 57 45 35 29 26 27 27 27 28 28 29 33 39 42 45 52 56 57 55 50 54 59 64 75 76 81 82 77
60 57 51 52 50 38 57 56 55 55 66 72 75 76 72 61 47 37 34 29 27 26 25 26 27 29 31 32 36 39 42 49 50 57 50 50 51 57 67 74 79 79 78 77
61 57 53 53 53 57 49 54 58 57 54 57 71 78 66 51 41 37 32 28 28 26 26 26 26 28 29 32 37 41 46 49 51 53 48 47 50 56 69 74 81 79 76 75
87 85 83 75 66 59 58 55 59 64 58 57 72 75 61 51 44 38 33 31 28 26 25 25 26 27 31 35 39 43 47 51 51 50 48 45 50 53 71 77 80 77 74 72
86 81 80 74 65 51 46 50 62 72 68 76 75 65 59 53 45 37 33 30 27 25 23 24 25 29 34 39 42 46 48 50 50 47 45 42 47 52 68 77 78 75 70 68
63 63 67 71 76 68 56 55 63 75 76 79 72 67 60 48 40 38 34 29 25 22 23 24 27 32 37 43 46 49 49 49 49 44 39 41 44 53 65 76 78 71 66 67
48 54 55 60 66 70 63 59 73 82 78 76 70 60 53 46 40 34 29 24 21 21 23 26 30 36 41 46 50 50 50 49 49 45 37 40 45 53 66 77 71 63 61 61
43 49 53 58 60 65 66 72 78 80 77 69 60 50 42 34 27 27 23 21 21 22 25 30 34 38 42 46 48 50 50 48 48 43 37 40 44 49 67 68 61 56 56 56
42 47 51 56 61 68 76 74 79 78 73 64 53 44 38 31 26 22 20 19 20 24 28 32 36 39 41 45 49 52 50 45 45 44 36 36 43 49 62 62 55 50 49 49
39 48 57 62 67 74 79 83 83 74 63 55 49 41 33 27 22 18 16 18 22 26 30 34 38 41 44 47 48 48 45 44 42 42 36 35 41 44 57 54 49 44 42 41
Wind_Direction_850mb
182 172 160 187 177 178 184 181 167 223 201 208 205 201 199 174 171 161 161 166 169 325 335 337 339 343 344 346 348 351 349 352 357 357 356 356 355 356 355 354 354 353 351 349
319 303 107 228 195 195 207 189 242 221 237 213 202 195 172 176 174 173 174 181 230 301 320 332 339 341 341 342 343 342 341 343 343 343 345 346 347 348 346 346 346 346 347 345
241 321 83 312 218 204 208 206 195 215 211 154 155 169 179 181 184 184 186 195 243 291 316 330 334 339 340 338 337 334 332 332 333 335 337 338 339 339 340 342 342 343 342 343
173 36 234 239 208 218 211 212 217 218 190 182 187 191 189 189 187 190 198 208 237 273 301 311 324 331 337 336 336 338 339 337 338 338 338 339 338 339 339 341 341 339 341 341
143 207 292 254 206 172 173 239 211 211 200 181 162 164 187 192 199 203 199 207 222 269 270 295 315 320 327 335 337 337 338 339 340 339 337 336 335 337 339 340 341 339 339 339
110 151 211 248 317 155 102 285 200 190 165 150 146 171 218 190 193 192 197 196 206 233 254 288 305 317 329 333 332 331 334 330 330 335 334 336 338 340 341 341 339 337 335 336
143 228 285 247 247 140 114 239 204 189 169 162 178 197 201 184 189 201 200 196 207 224 254 284 301 319 325 326 328 332 335 341 342 341 340 338 337 338 338 336 335 334 335 334
102 95 265 222 127 176 229 187 186 180 179 176 184 194 188 185 187 190 194 198 208 232 270 293 310 321 326 328 333 342 347 348 344 342 338 334 335 337 337 336 336 335 334 333
179 205 236 240 241 258 252 208 181 187 188 188 184 186 181 181 186 191 199 202 211 238 270 292 312 327 334 338 343 348 345 339 336 335 332 334 338 337 337 338 339 336 333 333
115 239 240 255 251 257 250 229 202 204 197 195 186 183 179 181 186 192 197 202 214 235 259 277 304 330 338 340 343 341 339 337 335 337 337 339 334 340 341 342 338 338 335 333
269 284 271 275 242 247 229 215 220 209 203 194 192 179 181 185 191 197 200 204 216 234 246 273 305 328 338 343 339 335 335 336 334 338 339 335 334 340 338 339 338 334 335 330
211 222 207 237 231 222 206 197 200 188 183 184 187 184 189 194 197 199 200 207 217 230 247 276 304 325 336 335 330 328 328 332 334 334 335 333 336 337 337 337 336 334 337 334
217 237 228 243 269 213 201 195 193 185 185 185 192 196 196 198 199 200 204 214 224 236 257 286 308 319 326 324 321 323 325 327 329 333 334 333 336 336 335 334 338 337 338 337
236 243 242 246 239 218 208 199 199 202 204 204 201 197 202 200 197 204 213 218 226 246 272 293 303 311 316 315 316 319 320 318 323 326 328 330 331 333 333 337 333 333 337 339
232 237 245 252 230 218 208 203 200 201 200 199 203 204 204 203 207 209 209 219 232 255 277 292 301 306 309 310 316 323 332 333 330 330 329 328 330 331 334 336 335 333 335 337
220 230 234 232 234 220 213 213 212 208 206 205 205 206 210 212 208 206 215 224 239 261 278 289 295 298 304 309 317 326 326 325 329 330 329 327 330 331 333 335 336 333 331 330
221 221 225 228 225 225 220 218 217 218 211 209 212 207 204 199 200 208 215 223 237 258 276 284 290 298 306 313 319 321 318 318 320 325 327 326 327 330 332 333 336 331 328 333
231 238 235 243 233 222 217 218 220 222 218 215 210 204 200 201 208 210 217 224 238 259 272 281 289 298 306 313 318 320 320 320 321 323 327 327 328 330 329 334 331 328 330 334
226 229 233 233 231 230 223 215 214 216 217 214 207 203 205 205 206 215 216 227 248 260 268 275 285 296 307 318 323 327 326 328 326 325 329 328 330 331 334 333 330 329 333 336
217 227 235 242 240 228 227 225 216 213 211 211 208 200 195 200 208 210 218 236 248 255 265 271 285 299 312 318 322 326 328 328 327 329 327 331 332 333 334 333 333 333 336 338
233 238 240 237 236 229 224 227 222 214 210 211 202 196 199 202 202 210 223 234 245 254 263 278 291 303 310 316 321 324 325 325 323 320 324 327 329 333 331 335 335 337 337 338
231 234 238 235 228 221 224 227 224 214 206 196 196 199 197 197 201 210 222 232 245 256 269 280 291 300 308 313 318 321 322 323 322 325 323 329 330 329 329 334 337 337 337 339
241 240 241 235 229 230 229 227 219 211 201 196 196 197 198 202 211 217 223 234 244 259 271 282 293 301 305 310 316 319 322 325 327 326 323 327 328 329 331 335 336 336 337 340
248 243 237 229 226 220 219 217 203 198 196 194 196 195 198 201 207 213 222 231 245 261 274 285 293 300 305 310 314 318 321 324 326 324 319 322 327 327 330 333 334 336 338 341
237 229 222 217 212 212 209 196 191 188 184 180 183 189 194 196 210 212 221 237 252 266 277 286 293 298 304 308 312 316 317 319 322 321 318 322 328 324 327 334 335 336 339 343
218 210 205 202 200 195 188 182 177 174 175 176 179 186 189 195 202 211 227 242 258 272 282 290 296 301 306 310 315 318 318 316 319 317 310 320 324 320 327 336 335 336 340 346
193 190 184 183 184 181 177 176 175 172 177 181 181 178 185 192 203 218 236 256 269 278 286 292 297 302 307 311 316 318 319 320 321 317 309 313 321 320 327 333 332 333 338 345